Terminal Aerodrome Forecast
Issued by NWS Wilmington, OH

Current Version | Previous Version | Graphics & Text | Print | Product List | Glossary On
Versions: 1 2 3 4 5 6 7 8 9 10 11 12 13 14 15 16 17 18 19 20 21 22 23 24 25 26 27
000
FTUS41 KILN 272000 AAB
TAFCVG
TAF AMD
KCVG 272058Z 2721/2824 24010G18KT 5SM HZ VCSH BKN015
     FM272200 27012G22KT P6SM -SHRA BKN015
     FM280000 31011KT P6SM SCT040
     FM280800 30010KT P6SM SCT015
     FM281500 31011KT P6SM BKN025
     FM281800 32011G19KT P6SM -SHRA BKN035
     FM282300 32011KT P6SM BKN035=

USA.gov is the U.S. government's official web portal to all federal, state and local government web resources and services.